Location: Ariel
(45.9570°N, 122.5700°W)
Time: 10:33:12
(UTC-07:00)

Explorer 11/Cluster Stage 4 - All Passes

Search period start: 18 July 2019 00:00
Search period end: 28 July 2019 00:00
Orbit: 467 x 1260 km, 28.8° (Epoch: 17 July)

Date Brightness Start Highest point End Pass type
(mag) Time Alt. Az. Time Alt. Az. Time Alt. Az.
18 Jul - 02:48:21 10° S 02:51:02 12° SSE 02:53:48 10° SE visible
18 Jul - 04:33:18 10° SW 04:38:50 21° S 04:44:33 10° SE visible
18 Jul - 06:21:07 10° SW 06:26:56 22° S 06:32:42 10° SE daylight
18 Jul - 08:11:12 10° SW 08:14:50 14° SSW 08:18:22 10° S daylight
19 Jul - 02:37:00 10° S 02:40:05 13° SSE 02:43:18 10° SE visible
19 Jul - 04:22:23 10° SW 04:27:53 21° S 04:33:39 10° SE visible
19 Jul - 06:10:19 10° SW 06:15:58 21° S 06:21:40 10° SE daylight
19 Jul - 08:00:48 10° SW 08:03:52 12° SSW 08:06:52 10° S daylight
20 Jul - 02:25:51 10° S 02:29:09 14° SSE 02:32:39 10° SE visible
20 Jul - 04:11:33 10° SW 04:16:57 21° S 04:22:41 10° SE visible
20 Jul - 05:59:35 10° SW 06:05:01 20° S 06:10:34 10° SSE daylight
20 Jul - 07:50:44 10° SW 07:52:53 11° SSW 07:55:02 10° S daylight
21 Jul - 02:14:49 10° S 02:18:14 14° SSE 02:21:53 10° SE visible
21 Jul - 04:00:46 10° SW 04:06:01 21° S 04:11:41 10° SE visible
21 Jul - 05:48:55 10° SW 05:54:04 19° SSW 05:59:22 10° SSE daylight
22 Jul - 02:03:54 10° SSW 02:07:20 15° SSE 02:11:03 10° SE visible
22 Jul - 03:50:03 10° SW 03:55:07 21° S 04:00:37 10° SE visible
22 Jul - 05:38:21 10° SW 05:43:08 18° SSW 05:48:06 10° SSE daylight
23 Jul - 01:53:04 10° SSW 01:56:27 15° SSE 02:00:09 10° SE visible
23 Jul - 03:39:24 10° SW 03:44:13 20° S 03:49:30 10° SE visible
23 Jul - 05:27:53 10° SW 05:32:11 16° SSW 05:36:43 10° SSE daylight
24 Jul - 01:42:19 10° SSW 01:45:36 15° SSE 01:49:12 10° SE visible
24 Jul - 03:28:49 10° SW 03:33:21 19° S 03:38:20 10° SE visible
24 Jul - 05:17:34 10° SW 05:21:17 14° SSW 05:25:11 10° SSE daylight
25 Jul - 01:31:39 10° SSW 01:34:46 14° SSE 01:38:12 10° SE visible
25 Jul - 03:18:19 10° SW 03:22:29 18° S 03:27:07 10° SE visible
25 Jul - 05:07:28 10° SW 05:10:23 13° SSW 05:13:25 10° S visible
26 Jul - 01:21:04 10° SSW 01:23:59 14° SSE 01:27:09 10° SE night (unlit)
26 Jul - 03:07:54 10° SW 03:11:39 16° S 03:15:49 10° SSE visible
26 Jul - 04:57:56 10° SSW 04:59:29 11° SSW 05:01:06 10° S visible
27 Jul - 01:10:33 10° SSW 01:13:11 14° S 01:16:04 10° SE night (unlit)
27 Jul - 02:57:35 10° SW 03:00:50 15° S 03:04:25 10° SSE visible
